User: anonymous   Login
Location: Unspecified
(0.0000°N, 0.0000°E)
Time: 19:40:54
(UTC+00:00)
Language:

Himawari 2 - Orbit

View from above orbital plane
View from above orbital plane
View from above satellite
View from above satellite

Ground track
Ground track

The orbit data is extracted from the following two-line orbital elements,

1 12677U 81076A   19340.66921569 -.00000008 +00000-0 +00000-0 0  9995
2 12677 012.8145 325.8425 0010195 282.1362 086.5694 00.99554628108493
Epoch (UTC): 06 December 2019 16:03:40
Eccentricity: 0.0010195
inclination: 12.8145°
perigee height: 35945 km
apogee height: 36031 km
right ascension of ascending node: 325.8425°
argument of perigee: 282.1362°
revolutions per day: 0.99554628
mean anomaly at epoch: 86.5694°
orbit number at epoch: 10849

The dashed part of the orbit path shows where the satellite is in the earth's shadow,  

DLR